Location: Montr�al
(45.5000°N, 73.5830°W)
Time: 16:34:36
(UTC-04:00)

ISS - All Passes

Search period start: 23 May 2018 00:00
Search period end: 02 June 2018 00:00
Orbit: 402 x 407 km, 51.6° (Epoch: 24 May)

Date Brightness Start Highest point End Pass type
(mag) Time Alt. Az. Time Alt. Az. Time Alt. Az.
23 May - 00:50:09 10° NW 00:53:02 27° N 00:55:55 10° ENE visible
23 May - 02:26:39 10° WNW 02:29:55 66° NNE 02:33:10 10° ESE visible
23 May - 04:03:37 10° W 04:06:09 21° SW 04:08:38 10° S visible
23 May - 20:44:13 10° SSW 20:47:14 35° SE 20:50:15 10° ENE daylight
23 May - 22:20:30 10° W 22:23:40 45° NNW 22:26:51 10° NE visible
23 May - 23:57:49 10° WNW 00:00:40 26° N 00:03:30 10° ENE visible
24 May - 01:34:30 10° NW 01:37:40 44° NNE 01:40:49 10° E visible
24 May - 03:11:05 10° WNW 03:14:07 35° SW 03:17:07 10° SSE visible
24 May - 19:52:43 10° S 19:55:12 20° SE 19:57:42 10° E daylight
24 May - 21:28:09 10° WSW 21:31:25 67° NNW 21:34:41 10° ENE visible
24 May - 23:05:24 10° WNW 23:08:18 28° N 23:11:10 10° NE visible
25 May - 00:42:19 10° NW 00:45:21 34° NNE 00:48:22 10° E visible
25 May - 02:18:45 10° WNW 02:22:00 63° SSW 02:25:14 10° SE visible
25 May - 19:02:04 10° SSE 19:03:14 11° SE 19:04:23 10° ESE daylight
25 May - 20:35:56 10° SW 20:39:12 75° SSE 20:42:29 10° ENE daylight
25 May - 22:12:55 10° WNW 22:15:55 32° NNW 22:18:54 10° NE visible
25 May - 23:50:04 10° NW 23:52:59 28° N 23:55:53 10° ENE visible
26 May - 01:26:32 10° WNW 01:29:48 78° NNE 01:33:04 10° ESE visible
26 May - 03:03:45 10° W 03:05:57 17° SW 03:08:08 10° S night (unlit)
26 May - 19:43:56 10° SW 19:47:03 43° SE 19:50:10 10° ENE daylight
26 May - 21:20:26 10° W 21:23:33 40° NNW 21:26:41 10° NE visible
26 May - 22:57:44 10° WNW 23:00:35 26° N 23:03:25 10° ENE visible
27 May - 00:34:20 10° NW 00:37:32 50° NNE 00:40:44 10° E visible
27 May - 02:11:01 10° WNW 02:13:54 29° SW 02:16:47 10° SSE visible
27 May - 18:52:13 10° SSW 18:54:57 24° SE 18:57:41 10° E daylight
27 May - 20:28:00 10° WSW 20:31:14 57° NNW 20:34:29 10° ENE daylight
27 May - 22:05:18 10° WNW 22:08:09 27° N 22:11:01 10° ENE visible
27 May - 23:42:08 10° NW 23:45:12 37° NNE 23:48:17 10° E visible
28 May - 01:18:35 10° WNW 01:21:47 51° SW 01:24:57 10° SE visible
28 May - 18:01:05 10° SSE 18:02:55 14° SE 18:04:45 10° E daylight
28 May - 19:35:41 10° WSW 19:38:58 90° SSW 19:42:15 10° ENE daylight
28 May - 21:12:47 10° WNW 21:15:44 30° N 21:18:41 10° NE visible
28 May - 22:49:52 10° NW 22:52:49 30° N 22:55:45 10° ENE visible
29 May - 00:26:18 10° WNW 00:29:35 88° SSW 00:32:50 10° ESE visible
29 May - 02:03:52 10° W 02:05:37 14° SW 02:07:22 10° SSW night (unlit)
29 May - 18:43:33 10° SW 18:46:45 52° SE 18:49:57 10° ENE daylight
29 May - 20:20:16 10° W 20:23:20 36° NNW 20:26:25 10° NE daylight
29 May - 21:57:31 10° WNW 22:00:23 27° N 22:03:14 10° ENE visible
29 May - 23:34:03 10° WNW 23:37:18 58° NNE 23:40:31 10° ESE visible
30 May - 01:10:52 10° W 01:13:34 24° SW 01:16:16 10° SSE visible
30 May - 17:51:41 10° SSW 17:54:35 30° SE 17:57:30 10° ENE daylight
30 May - 19:27:46 10° W 19:30:57 50° NNW 19:34:10 10° NE daylight
30 May - 21:05:04 10° WNW 21:07:55 26° N 21:10:46 10° ENE visible
30 May - 22:41:48 10° NW 22:44:56 40° NNE 22:48:03 10° E visible
31 May - 00:18:19 10° WNW 00:21:27 42° SW 00:24:32 10° SE visible
31 May - 17:00:15 10° S 17:02:29 17° SE 17:04:44 10° E daylight
31 May - 18:35:21 10° WSW 18:38:38 77° NNW 18:41:55 10° ENE daylight
31 May - 20:12:32 10° WNW 20:15:27 28° N 20:18:22 10° NE daylight
31 May - 21:49:32 10° NW 21:52:31 32° NNE 21:55:31 10° ENE visible
31 May - 23:25:57 10° WNW 23:29:13 74° SSW 23:32:29 10° SE visible
01 Jun - 01:04:07 10° WSW 01:05:11 11° SW 01:06:13 10° SSW visible
01 Jun - 17:43:06 10° SW 17:46:21 64° SSE 17:49:36 10° ENE daylight
01 Jun - 19:19:58 10° W 19:23:00 34° NNW 19:26:02 10° NE daylight
01 Jun - 20:57:10 10° NW 21:00:04 28° N 21:02:57 10° ENE daylight
01 Jun - 22:33:39 10° WNW 22:36:56 68° NNE 22:40:10 10° ESE visible
